Lid_Strength_Index
1 1 1 1 1 1 2 2 4 6 6 3 3 0 -0 -0 -0 1 2 2 2 3 4 4 3 2 2 1 1 1 1 0 0 0 -0 -1 -1 -1
1 1 1 1 1 1 1 2 2 4 6 3 2 1 1 -0 -1 1 1 2 3 3 3 3 3 3 3 2 2 2 2 2 2 1 -1 -1 -0 0
1 1 2 1 2 1 1 1 2 2 4 3 1 1 1 2 1 1 1 2 2 3 3 3 4 4 3 3 3 2 2 2 2 0 0 0 1 1
2 2 2 1 2 1 2 2 2 2 3 4 2 2 2 2 2 2 2 2 2 3 4 4 4 4 4 4 4 4 4 2 2 2 2 2 2 2
1 2 2 2 2 2 2 2 2 2 2 3 3 2 2 2 3 3 3 3 3 3 5 5 5 5 5 5 6 4 4 5 5 4 4 3 4 4
1 1 1 1 2 2 2 2 2 2 2 3 4 3 3 3 3 4 4 3 3 4 5 5 6 6 6 4 4 5 6 7 7 7 6 6 6 6
1 1 1 2 2 2 2 2 3 3 3 4 4 4 4 4 4 4 5 4 5 4 6 6 7 5 5 5 5 6 7 7 7 8 8 7 7 7
2 1 1 2 4 5 5 5 3 3 4 4 4 5 4 4 4 5 5 5 6 3 5 5 4 5 5 7 7 7 7 7 7 7 8 8 8 8
1 1 1 1 2 3 7 6 6 6 5 3 4 4 4 4 4 4 4 4 4 4 4 3 3 7 8 8 7 8 8 8 8 8 8 8 9 9
1 1 1 1 1 2 2 3 3 2 3 2 3 3 3 3 3 3 3 2 2 3 3 4 5 8 8 9 8 8 9 9 9 9 8 9 9 9
1 1 1 2 8 7 2 3 3 4 7 7 7 8 9 8 4 3 3 4 5 4 1 3 4 6 7 9 9 8 9 9 9 9 9 10 10 10
1 3 7 5 8 7 2 3 3 3 3 3 4 6 6 6 7 2 2 4 3 3 1 3 4 4 6 7 9 10 10 9 9 9 9 9 10 10
2 2 4 9 7 7 6 2 3 2 4 2 2 1 2 2 2 2 0 1 2 3 1 1 3 4 4 6 8 9 10 10 11 11 11 10 11 11
2 3 7 10 9 7 5 10 9 5 2 2 2 2 2 1 1 0 0 0 1 1 1 1 3 4 4 6 7 8 8 8 10 9 11 10 10 10
1 7 11 10 10 9 9 8 7 1 1 2 2 2 1 0 0 1 2 2 2 2 0 0 1 3 4 5 5 8 8 8 7 8 8 10 11 11
7 5 6 6 6 5 5 5 1 1 1 2 2 1 1 1 1 2 4 4 4 5 3 4 3 3 3 4 6 9 8 9 8 8 9 10 8 9
2 1 2 2 2 2 1 1 1 1 1 1 2 2 1 1 2 1 2 3 4 5 6 6 5 8 9 8 8 8 8 8 7 9 10 10 10 10
2 2 2 2 2 2 2 2 1 2 1 1 1 2 2 2 2 2 3 3 4 5 6 7 7 8 8 9 10 8 8 8 8 9 10 12 12 10
2 2 2 2 2 2 2 2 2 1 1 1 1 2 2 2 5 3 3 3 3 4 5 6 7 7 10 11 12 13 9 9 10 11 11 12 12 11
2 2 2 2 2 2 2 2 1 1 1 1 1 1 1 2 3 3 3 3 3 3 4 5 7 7 9 10 11 14 14 11 11 11 12 11 11 10
2 2 2 1 1 1 1 1 1 1 1 1 1 1 1 2 2 3 3 8 7 4 4 5 6 10 7 9 12 13 13 13 13 12 12 14 14 13
2 2 1 1 1 1 1 1 1 2 1 1 1 1 1 1 2 2 2 3 4 4 4 9 8 8 9 10 12 13 14 13 13 12 12 12 13 15
1 1 1 1 1 1 1 1 1 1 1 1 1 1 1 2 1 1 2 2 3 4 8 10 9 9 10 11 13 13 12 12 11 13 12 12 11 11